KJ6HT Weather Reports


time (UTC)temp
C
wind
direction
speed
KPH
gust
KPH
rain 1hr
cm
rain 24hr
cm
rain mn
cm
humidity
%
barometer
mb
20260507110004 12 291 0.0 0.0 0.00 0.00 0.00 88 1015.1
20260507104502 12 291 0.0 0.0 0.00 0.00 0.00 88 1015.1
20260507103129 12 291 0.0 0.0 0.00 0.00 0.00 86 1015.3
20260507101558 12 291 0.0 0.0 0.00 0.00 0.00 86 1015.4
20260507100109 12 291 0.0 0.0 0.00 0.00 0.00 84 1015.4
20260507094552 13 291 0.0 0.0 0.00 0.00 0.00 84 1015.5
20260507093051 13 290 0.0 0.0 0.00 0.00 0.00 84 1015.7
20260507091549 13 291 0.0 0.0 0.00 0.00 0.00 83 1015.6
20260507090145 13 291 0.0 0.0 0.00 0.00 0.00 82 1015.8
20260507084547 15 291 0.0 0.0 0.00 0.00 0.00 79 1016.0
20260507083044 15 291 0.0 1.6 0.00 0.00 0.00 80 1016.1
20260507081540 15 291 0.0 1.6 0.00 0.00 0.00 81 1016.1
20260507080045 14 291 0.0 0.0 0.00 0.00 0.00 82 1016.1
20260507074537 14 290 0.0 0.0 0.00 0.00 0.00 82 1016.1
20260507073040 14 291 0.0 0.0 0.00 0.00 0.00 80 1016.1
20260507071531 15 290 0.0 0.0 0.00 0.00 0.00 78 1016.3
20260507070028 15 291 0.0 1.6 0.00 0.00 0.00 77 1016.3
20260507064527 16 291 0.0 1.6 0.00 0.00 0.00 76 1016.4
20260507063028 16 291 0.0 3.2 0.00 0.00 0.00 75 1016.5
20260507061526 16 308 0.0 6.4 0.00 0.00 0.00 75 1016.5
20260507060027 16 249 0.0 0.0 0.00 0.00 0.00 75 1016.5
20260507054523 16 249 0.0 0.0 0.00 0.00 0.00 75 1016.5
20260507053024 16 249 0.0 0.0 0.00 0.00 0.00 74 1016.3
20260507051522 16 300 0.0 0.0 0.00 0.00 0.00 73 1016.4
20260507050038 17 308 0.0 6.4 0.00 0.00 0.00 72 1016.3
20260507044520 17 294 4.8 9.7 0.00 0.00 0.00 71 1016.1
20260507043020 17 312 3.2 9.7 0.00 0.00 0.00 70 1016.0
20260507041519 17 257 6.4 14.5 0.00 0.00 0.00 70 1015.9
20260507040019 18 304 4.8 12.9 0.00 0.00 0.00 69 1015.7
20260507034521 18 306 3.2 14.5 0.00 0.00 0.00 68 1015.5
20260507033019 18 278 4.8 12.9 0.00 0.00 0.00 67 1015.4
20260507031517 18 286 3.2 9.7 0.00 0.00 0.00 65 1015.2
20260507030018 19 281 3.2 12.9 0.00 0.00 0.00 64 1015.0
20260507024516 20 301 3.2 17.7 0.00 0.00 0.00 63 1014.9
20260507023015 20 344 4.8 12.9 0.00 0.00 0.00 61 1014.7
20260507021515 20 269 3.2 12.9 0.00 0.00 0.00 58 1014.6
20260507020015 21 308 3.2 17.7 0.00 0.00 0.00 56 1014.5
20260507014513 21 251 4.8 16.1 0.00 0.00 0.00 54 1014.4
20260507013012 22 211 1.6 16.1 0.00 0.00 0.00 53 1014.2
20260507011516 22 321 4.8 17.7 0.00 0.00 0.00 53 1014.1
20260507010014 23 281 6.4 19.3 0.00 0.00 0.00 50 1014.0
20260507004509 23 217 8.0 20.9 0.00 0.00 0.00 49 1013.9
20260507003009 23 219 8.0 17.7 0.00 0.00 0.00 47 1013.9
20260507001509 24 261 6.4 20.9 0.00 0.00 0.00 46 1013.7
20260507000008 25 256 11.3 19.3 0.00 0.00 0.00 45 1013.8
20260506234506 25 231 6.4 19.3 0.00 0.00 0.00 46 1013.6
20260506233006 25 291 8.0 17.7 0.00 0.00 0.00 44 1013.7
20260506231506 25 312 4.8 22.5 0.00 0.00 0.00 45 1013.8
20260506230003 25 293 6.4 17.7 0.00 0.00 0.00 43 1013.9
20260506224502 26 262 3.2 22.5 0.00 0.00 0.00 44 1014.0
20260506223104 25 318 8.0 19.3 0.00 0.00 0.00 44 1014.1
20260506223001 25 323 9.7 19.3 0.00 0.00 0.00 43 1014.2
20260506221603 26 172 1.6 11.3 0.00 0.00 0.00 42 1014.2
20260506220057 25 229 4.8 16.1 0.00 0.00 0.00 42 1014.5
20260506214556 25 215 3.2 16.1 0.00 0.00 0.00 43 1014.6
20260506213055 25 198 8.0 16.1 0.00 0.00 0.00 42 1014.9
20260506211553 25 296 1.6 20.9 0.00 0.00 0.00 43 1015.0
20260506210048 24 309 8.0 14.5 0.00 0.00 0.00 44 1015.4
20260506204542 23 312 3.2 11.3 0.00 0.00 0.00 44 1015.5
20260506203040 23 311 6.4 11.3 0.00 0.00 0.00 43 1015.7
20260506201539 23 260 3.2 9.7 0.00 0.00 0.00 45 1015.9
20260506200036 22 245 3.2 14.5 0.00 0.00 0.00 47 1016.2
20260506194531 22 332 1.6 11.3 0.00 0.00 0.00 46 1016.3
20260506193042 22 318 0.0 9.7 0.00 0.00 0.00 47 1016.5
20260506191525 22 243 0.0 8.0 0.00 0.00 0.00 47 1016.7
20260506190023 21 297 4.8 16.1 0.00 0.00 0.00 50 1016.9
20260506184519 20 65 3.2 16.1 0.00 0.00 0.00 53 1017.1
20260506183019 20 314 3.2 11.3 0.00 0.00 0.00 53 1017.3
20260506181533 20 1 3.2 14.5 0.00 0.00 0.00 53 1017.4
20260506180017 20 346 3.2 12.9 0.00 0.00 0.00 53 1017.5
20260506174515 19 89 0.0 11.3 0.00 0.00 0.00 55 1017.4
20260506173012 18 138 1.6 9.7 0.00 0.00 0.00 60 1017.5
20260506171516 19 211 1.6 8.0 0.00 0.00 0.00 59 1017.6
20260506170009 17 302 1.6 6.4 0.00 0.00 0.00 62 1017.6
20260506164510 17 260 0.0 6.4 0.00 0.00 0.00 62 1017.7
20260506163014 17 115 1.6 9.7 0.00 0.00 0.00 63 1017.7
20260506161505 17 205 1.6 6.4 0.00 0.00 0.00 64 1017.7
20260506160003 16 180 1.6 6.4 0.00 0.00 0.00 67 1017.7
20260506154612 16 86 0.0 4.8 0.00 0.00 0.00 70 1017.7
20260506153056 16 99 1.6 3.2 0.00 0.00 0.00 71 1017.8
20260506151552 15 105 0.0 3.2 0.00 0.00 0.00 75 1017.8
20260506150050 14 49 1.6 3.2 0.00 0.00 0.00 76 1017.8
20260506144552 14 66 0.0 3.2 0.00 0.00 0.00 79 1017.9
20260506143042 13 106 0.0 1.6 0.00 0.00 0.00 81 1017.8
20260506141541 12 321 0.0 0.0 0.00 0.00 0.00 82 1017.8
20260506140038 12 320 0.0 0.0 0.00 0.00 0.00 87 1017.8
20260506134536 11 320 0.0 0.0 0.00 0.00 0.00 92 1017.7
20260506133039 10 321 0.0 0.0 0.00 0.00 0.00 92 1017.4
20260506131534 9 321 0.0 0.0 0.00 0.00 0.00 93 1017.2
20260506130029 9 321 0.0 0.0 0.00 0.00 0.00 92 1017.0
20260506124526 9 321 0.0 0.0 0.00 0.00 0.00 92 1017.1
20260506123025 9 321 0.0 0.0 0.00 0.00 0.00 92 1016.9
20260506121522 9 321 0.0 0.0 0.00 0.00 0.00 92 1016.8
20260506120023 9 321 0.0 0.0 0.00 0.00 0.00 92 1016.7
20260506114522 9 321 0.0 0.0 0.00 0.33 0.00 91 1016.7
20260506113016 10 321 0.0 0.0 0.00 0.33 0.00 90 1016.7
20260506111515 10 321 0.0 0.0 0.00 0.33 0.00 91 1016.7